User: anonymous   Login
Location: Plymouth
(43.7570°N, 71.6890°W)
Time: 23:57:40
(UTC-04:00)
Language:

Cosmos 2016 Rocket - Orbit

View from above orbital plane
View from above orbital plane
View from above satellite
View from above satellite

Ground track
Ground track

The orbit data is extracted from the following two-line orbital elements,

1 19922U 89028B   17290.58504312 +.00000005 +00000-0 -10218-4 0  9999
2 19922 082.9589 335.9927 0035175 262.4153 097.3008 13.77197316433820
Epoch (UTC): 17 October 2017 14:02:27
Eccentricity: 0.0035175
inclination: 82.9589°
perigee height: 948 km
apogee height: 1000 km
right ascension of ascending node: 335.9927°
argument of perigee: 262.4153°
revolutions per day: 13.77197316
mean anomaly at epoch: 97.3008°
orbit number at epoch: 43382

The dashed part of the orbit path shows where the satellite is in the earth's shadow,  

DLR